Time,TemperatureF,DewpointF,PressureIn,WindDirection,WindDirectionDegrees,WindSpeedMPH,WindSpeedGustMPH,Humidity,HourlyPrecipIn,Conditions,Clouds,dailyrainin,SoftwareType,DateUTC
2013-08-02 00:02:00,63.0,61.0,29.83,SW,221,0.0,2.0,93,0.00,,,0.35,,2013-08-02 04:02:00,
2013-08-02 00:22:00,63.0,61.0,29.84,SW,221,0.0,1.0,94,0.00,,,0.35,,2013-08-02 04:22:00,
2013-08-02 00:33:00,62.0,60.0,29.84,SW,221,0.0,0.0,94,0.00,,,0.35,,2013-08-02 04:33:00,
2013-08-02 00:53:00,62.0,60.0,29.84,SW,221,0.0,0.0,94,0.00,,,0.35,,2013-08-02 04:53:00,
2013-08-02 01:02:00,61.0,59.0,29.84,SW,221,0.0,0.0,94,0.00,,,0.35,,2013-08-02 05:02:00,
2013-08-02 01:12:00,61.0,59.0,29.84,SW,221,0.0,2.0,94,0.00,,,0.35,,2013-08-02 05:12:00,
2013-08-02 01:32:00,61.0,60.0,29.84,SW,221,0.0,0.0,95,0.00,,,0.35,,2013-08-02 05:32:00,
2013-08-02 01:43:00,61.0,60.0,29.85,SW,221,1.0,2.0,95,0.00,,,0.35,,2013-08-02 05:43:00,
2013-08-02 01:53:00,60.0,59.0,29.84,SW,221,0.0,2.0,95,0.00,,,0.35,,2013-08-02 05:53:00,
2013-08-02 02:02:00,60.0,59.0,29.84,SW,221,0.0,2.0,95,0.00,,,0.35,,2013-08-02 06:02:00,
2013-08-02 02:12:00,60.0,59.0,29.84,SW,221,0.0,0.0,96,0.00,,,0.35,,2013-08-02 06:12:00,
2013-08-02 02:22:00,60.0,59.0,29.84,SW,221,0.0,0.0,96,0.00,,,0.35,,2013-08-02 06:22:00,
2013-08-02 02:33:00,60.0,59.0,29.84,SW,221,0.0,0.0,95,0.00,,,0.35,,2013-08-02 06:33:00,
2013-08-02 02:43:00,60.0,59.0,29.84,SW,221,0.0,0.0,96,0.00,,,0.35,,2013-08-02 06:43:00,
2013-08-02 02:52:00,60.0,59.0,29.83,SW,221,0.0,0.0,96,0.00,,,0.35,,2013-08-02 06:52:00,
2013-08-02 03:02:00,60.0,59.0,29.83,SW,221,0.0,0.0,96,0.00,,,0.35,,2013-08-02 07:02:00,
2013-08-02 03:12:00,60.0,59.0,29.83,SW,221,0.0,0.0,96,0.00,,,0.35,,2013-08-02 07:12:00,
2013-08-02 03:22:00,59.0,58.0,29.83,SW,221,0.0,0.0,96,0.00,,,0.35,,2013-08-02 07:22:00,
2013-08-02 03:33:00,59.0,58.0,29.83,SW,221,0.0,0.0,96,0.00,,,0.35,,2013-08-02 07:33:00,
2013-08-02 03:44:00,59.0,58.0,29.83,SW,221,0.0,0.0,96,0.00,,,0.35,,2013-08-02 07:44:00,
2013-08-02 03:53:00,59.0,58.0,29.82,SW,221,0.0,0.0,96,0.00,,,0.35,,2013-08-02 07:53:00,
2013-08-02 04:02:00,59.0,58.0,29.82,SW,221,0.0,0.0,96,0.00,,,0.35,,2013-08-02 08:02:00,
2013-08-02 04:12:00,59.0,58.0,29.82,SW,221,0.0,0.0,96,0.00,,,0.35,,2013-08-02 08:12:00,
2013-08-02 04:33:00,58.0,57.0,29.82,SW,221,0.0,0.0,96,0.00,,,0.35,,2013-08-02 08:33:00,
2013-08-02 04:43:00,58.0,57.0,29.82,SW,221,0.0,2.0,96,0.00,,,0.35,,2013-08-02 08:43:00,
2013-08-02 04:54:00,58.0,57.0,29.82,SW,221,0.0,1.0,96,0.00,,,0.35,,2013-08-02 08:54:00,
2013-08-02 05:02:00,58.0,57.0,29.82,SW,221,0.0,0.0,97,0.00,,,0.35,,2013-08-02 09:02:00,
2013-08-02 05:12:00,58.0,57.0,29.82,SW,221,0.0,0.0,97,0.00,,,0.35,,2013-08-02 09:12:00,
2013-08-02 05:23:00,58.0,57.0,29.82,SW,221,0.0,0.0,97,0.00,,,0.35,,2013-08-02 09:23:00,
2013-08-02 05:43:00,57.0,56.0,29.83,SW,221,0.0,0.0,97,0.00,,,0.35,,2013-08-02 09:43:00,
2013-08-02 05:53:00,57.0,56.0,29.83,SW,221,0.0,0.0,96,0.00,,,0.35,,2013-08-02 09:53:00,
2013-08-02 06:03:00,57.0,56.0,29.83,SW,221,0.0,0.0,97,0.00,,,0.35,,2013-08-02 10:03:00,
2013-08-02 06:12:00,57.0,56.0,29.83,SW,221,0.0,1.0,97,0.00,,,0.35,,2013-08-02 10:12:00,
2013-08-02 06:23:00,57.0,56.0,29.84,SW,221,0.0,1.0,97,0.00,,,0.20,,2013-08-02 10:23:00,
2013-08-02 06:33:00,57.0,56.0,29.84,SW,221,0.0,1.0,97,0.00,,,0.20,,2013-08-02 10:33:00,
2013-08-02 06:43:00,57.0,56.0,29.84,SW,221,0.0,1.0,97,0.00,,,0.20,,2013-08-02 10:43:00,
2013-08-02 06:52:00,58.0,57.0,29.84,SW,221,1.0,1.0,98,0.00,,,0.20,,2013-08-02 10:52:00,
2013-08-02 07:02:00,58.0,57.0,29.85,SW,221,0.0,1.0,98,0.00,,,0.20,,2013-08-02 11:02:00,
2013-08-02 07:12:00,58.0,57.0,29.85,SW,221,0.0,0.0,97,0.00,,,0.20,,2013-08-02 11:12:00,
2013-08-02 07:23:00,59.0,58.0,29.85,SW,221,0.0,1.0,97,0.00,,,0.00,,2013-08-02 11:23:00,
2013-08-02 07:33:00,60.0,59.0,29.85,SW,221,0.0,2.0,97,0.00,,,0.00,,2013-08-02 11:33:00,
2013-08-02 07:43:00,61.0,60.0,29.85,SW,221,1.0,2.0,97,0.00,,,0.00,,2013-08-02 11:43:00,
2013-08-02 07:52:00,62.0,61.0,29.85,SW,221,1.0,3.0,95,0.00,,,0.00,,2013-08-02 11:52:00,
2013-08-02 08:02:00,63.0,61.0,29.85,SW,221,1.0,3.0,94,0.00,,,0.00,,2013-08-02 12:02:00,
2013-08-02 08:12:00,64.0,62.0,29.85,SW,221,0.0,3.0,92,0.00,,,0.00,,2013-08-02 12:12:00,
2013-08-02 08:22:00,64.0,62.0,29.85,SW,221,0.0,2.0,92,0.00,,,0.00,,2013-08-02 12:22:00,
2013-08-02 08:43:00,67.0,63.0,29.85,SW,221,1.0,3.0,87,0.00,,,0.00,,2013-08-02 12:43:00,
2013-08-02 08:52:00,68.0,64.0,29.85,SW,219,2.0,3.0,86,0.00,,,0.00,,2013-08-02 12:52:00,
2013-08-02 09:02:00,69.0,64.0,29.85,SW,218,1.0,3.0,83,0.00,,,0.00,,2013-08-02 13:02:00,
2013-08-02 09:12:00,69.0,64.0,29.85,SW,218,1.0,3.0,85,0.04,,,0.04,,2013-08-02 13:12:00,
2013-08-02 09:33:00,69.0,64.0,29.83,SSW,210,0.0,3.0,84,0.04,,,0.04,,2013-08-02 13:33:00,
2013-08-02 09:43:00,70.0,65.0,29.83,SSW,211,1.0,3.0,84,0.04,,,0.04,,2013-08-02 13:43:00,
2013-08-02 10:02:00,72.0,66.0,29.84,SSW,194,1.0,5.0,81,0.04,,,0.04,,2013-08-02 14:02:00,
2013-08-02 10:12:00,73.0,65.0,29.84,SSW,210,1.0,6.0,76,0.00,,,0.04,,2013-08-02 14:12:00,
2013-08-02 10:22:00,72.0,64.0,29.85,West,272,2.0,5.0,77,0.00,,,0.04,,2013-08-02 14:22:00,
2013-08-02 10:32:00,72.0,64.0,29.85,South,185,1.0,6.0,75,0.00,,,0.04,,2013-08-02 14:32:00,
2013-08-02 10:43:00,73.0,63.0,29.84,SW,224,2.0,7.0,72,0.00,,,0.04,,2013-08-02 14:43:00,
2013-08-02 10:53:00,74.0,65.0,29.84,SW,220,2.0,6.0,73,0.00,,,0.04,,2013-08-02 14:53:00,
2013-08-02 11:03:00,74.0,64.0,29.84,SW,224,4.0,7.0,70,0.00,,,0.04,,2013-08-02 15:03:00,
2013-08-02 11:12:00,74.0,63.0,29.84,SW,225,3.0,6.0,68,0.00,,,0.04,,2013-08-02 15:12:00,
2013-08-02 11:22:00,74.0,63.0,29.84,SSW,210,2.0,6.0,69,0.00,,,0.04,,2013-08-02 15:22:00,
2013-08-02 11:32:00,75.0,65.0,29.84,SSW,210,1.0,6.0,70,0.00,,,0.04,,2013-08-02 15:32:00,
2013-08-02 11:43:00,76.0,65.0,29.84,NW,325,1.0,5.0,69,0.00,,,0.04,,2013-08-02 15:43:00,
2013-08-02 11:52:00,76.0,65.0,29.84,SSW,203,2.0,5.0,70,0.00,,,0.04,,2013-08-02 15:52:00,
2013-08-02 12:02:00,76.0,64.0,29.84,SSW,192,2.0,5.0,67,0.00,,,0.04,,2013-08-02 16:02:00,
2013-08-02 12:22:00,78.0,64.0,29.83,SSW,202,2.0,5.0,62,0.00,,,0.04,,2013-08-02 16:22:00,
2013-08-02 12:32:00,78.0,64.0,29.83,WNW,303,2.0,7.0,63,0.00,,,0.04,,2013-08-02 16:32:00,
2013-08-02 12:43:00,78.0,64.0,29.83,SSW,202,3.0,8.0,63,0.00,,,0.04,,2013-08-02 16:43:00,
2013-08-02 12:52:00,78.0,65.0,29.83,SW,217,2.0,8.0,64,0.00,,,0.04,,2013-08-02 16:52:00,
2013-08-02 13:02:00,79.0,65.0,29.83,SE,135,2.0,5.0,63,0.00,,,0.04,,2013-08-02 17:02:00,
2013-08-02 13:12:00,78.0,64.0,29.83,NNE,19,2.0,4.0,63,0.00,,,0.04,,2013-08-02 17:12:00,
2013-08-02 13:35:00,78.0,63.0,29.83,North,350,2.0,5.0,61,0.00,,,0.04,,2013-08-02 17:35:00,
2013-08-02 13:43:00,78.0,66.0,29.83,SW,217,1.0,5.0,66,0.00,,,0.04,,2013-08-02 17:43:00,
2013-08-02 13:52:00,79.0,63.0,29.83,SW,214,1.0,7.0,58,0.00,,,0.04,,2013-08-02 17:52:00,
2013-08-02 14:12:00,79.0,61.0,29.83,WSW,250,2.0,9.0,55,0.00,,,0.04,,2013-08-02 18:12:00,
2013-08-02 14:43:00,79.0,62.0,29.82,SSW,209,2.0,5.0,56,0.00,,,0.04,,2013-08-02 18:43:00,
2013-08-02 14:52:00,80.0,62.0,29.82,SW,234,5.0,9.0,55,0.00,,,0.04,,2013-08-02 18:52:00,
2013-08-02 15:32:00,77.0,63.0,29.81,SW,231,4.0,7.0,63,0.00,,,0.04,,2013-08-02 19:32:00,
2013-08-02 15:43:00,77.0,62.0,29.81,SSW,198,5.0,8.0,60,0.00,,,0.04,,2013-08-02 19:43:00,
2013-08-02 15:52:00,76.0,63.0,29.80,SSW,207,7.0,15.0,65,0.00,,,0.04,,2013-08-02 19:52:00,
2013-08-02 16:02:00,77.0,65.0,29.80,SSW,206,7.0,14.0,66,0.00,,,0.04,,2013-08-02 20:02:00,
2013-08-02 16:43:00,79.0,62.0,29.80,SSW,197,11.0,18.0,56,0.00,,,0.04,,2013-08-02 20:43:00,
2013-08-02 16:52:00,79.0,62.0,29.80,SW,234,10.0,19.0,57,0.00,,,0.04,,2013-08-02 20:52:00,
2013-08-02 17:03:00,79.0,62.0,29.80,SW,220,9.0,18.0,57,0.00,,,0.04,,2013-08-02 21:03:00,
2013-08-02 17:22:00,78.0,62.0,29.80,SW,219,8.0,18.0,59,0.00,,,0.04,,2013-08-02 21:22:00,
2013-08-02 17:53:00,77.0,63.0,29.79,SSW,207,9.0,18.0,61,0.00,,,0.04,,2013-08-02 21:53:00,
2013-08-02 18:03:00,77.0,63.0,29.79,SSW,211,9.0,14.0,61,0.00,,,0.04,,2013-08-02 22:03:00,
2013-08-02 18:22:00,76.0,62.0,29.79,SW,219,10.0,15.0,62,0.00,,,0.04,,2013-08-02 22:22:00,
2013-08-02 18:32:00,76.0,63.0,29.79,SW,231,8.0,17.0,65,0.00,,,0.04,,2013-08-02 22:32:00,
2013-08-02 18:43:00,75.0,62.0,29.79,WSW,242,6.0,13.0,65,0.00,,,0.04,,2013-08-02 22:43:00,
2013-08-02 18:52:00,75.0,62.0,29.79,SSW,201,9.0,15.0,65,0.00,,,0.04,,2013-08-02 22:52:00,
2013-08-02 19:02:00,74.0,61.0,29.79,SW,234,8.0,16.0,65,0.00,,,0.04,,2013-08-02 23:02:00,
2013-08-02 19:12:00,73.0,61.0,29.79,SW,230,5.0,11.0,67,0.00,,,0.04,,2013-08-02 23:12:00,
2013-08-02 19:22:00,73.0,61.0,29.79,SW,234,4.0,10.0,67,0.00,,,0.04,,2013-08-02 23:22:00,
2013-08-02 19:32:00,73.0,61.0,29.80,West,263,6.0,14.0,66,0.00,,,0.04,,2013-08-02 23:32:00,
2013-08-02 19:43:00,72.0,60.0,29.80,SW,219,5.0,11.0,66,0.00,,,0.04,,2013-08-02 23:43:00,
2013-08-02 19:53:00,72.0,59.0,29.80,SW,225,6.0,11.0,64,0.00,,,0.04,,2013-08-02 23:53:00,
2013-08-02 20:02:00,72.0,59.0,29.79,SW,229,4.0,12.0,63,0.00,,,0.04,,2013-08-03 00:02:00,
2013-08-02 20:12:00,72.0,59.0,29.79,SW,220,5.0,12.0,64,0.00,,,0.04,,2013-08-03 00:12:00,
2013-08-02 20:22:00,72.0,61.0,29.79,SW,227,6.0,15.0,68,0.00,,,0.04,,2013-08-03 00:22:00,
2013-08-02 20:33:00,71.0,61.0,29.79,SW,229,5.0,9.0,70,0.00,,,0.04,,2013-08-03 00:33:00,
2013-08-02 20:43:00,71.0,62.0,29.79,SW,218,4.0,10.0,73,0.00,,,0.04,,2013-08-03 00:43:00,
2013-08-02 20:52:00,70.0,61.0,29.79,SW,217,4.0,8.0,74,0.04,,,0.08,,2013-08-03 00:52:00,
2013-08-02 21:02:00,70.0,61.0,29.79,South,190,4.0,9.0,73,0.04,,,0.08,,2013-08-03 01:02:00,
2013-08-02 21:12:00,70.0,61.0,29.79,SW,230,4.0,8.0,72,0.04,,,0.08,,2013-08-03 01:12:00,
2013-08-02 21:22:00,71.0,62.0,29.79,WSW,255,4.0,7.0,72,0.04,,,0.08,,2013-08-03 01:22:00,
2013-08-02 21:33:00,71.0,62.0,29.80,WSW,238,5.0,11.0,72,0.04,,,0.08,,2013-08-03 01:33:00,
2013-08-02 21:42:00,71.0,62.0,29.80,SW,217,4.0,11.0,74,0.00,,,0.08,,2013-08-03 01:42:00,
2013-08-02 21:53:00,69.0,61.0,29.82,WSW,240,3.0,8.0,76,0.04,,,0.12,,2013-08-03 01:53:00,
2013-08-02 22:02:00,67.0,61.0,29.81,North,349,2.0,8.0,80,0.08,,,0.16,,2013-08-03 02:02:00,
2013-08-02 22:12:00,65.0,60.0,29.81,SSW,195,1.0,6.0,85,0.39,,,0.47,,2013-08-03 02:12:00,
2013-08-02 22:32:00,63.0,61.0,29.81,NNE,33,0.0,5.0,93,1.18,,,1.26,,2013-08-03 02:32:00,
2013-08-02 22:52:00,64.0,63.0,29.80,South,174,0.0,2.0,95,1.26,,,1.34,,2013-08-03 02:52:00,
2013-08-02 23:53:00,63.0,62.0,29.80,SSW,208,2.0,4.0,96,0.00,,,1.34,,2013-08-03 03:53:00,